Jackson, MN

9:51 AM CDT on October 17, 2017 (GMT -0500)
Jackson Municipal

Weather History for KMJQ - June, 2013

Change the Weather History Date:

Thursday, June 27, 2013

  Actual Average Record
Temperature  
Mean Temperature 77 °F -  
Max Temperature 86 °F 79 °F 95 °F (2012)
Min Temperature 68 °F 58 °F 48 °F (2000)
Cooling Degree Days 12    
Growing Degree Days 27 (Base 50)    
Moisture  
Dew Point 55 °F    
Average Humidity 50    
Maximum Humidity 83    
Minimum Humidity 22    
Precipitation  
Precipitation 0.00 in - - ()
Sea Level Pressure  
Sea Level Pressure 29.92 in    
Wind  
Wind Speed 8 mph (WNW)    
Max Wind Speed 25 mph    
Max Gust Speed 34 mph    
Visibility 10 miles    
Events      
Averages and records for this station are not official NWS values.
T = Trace of Precipitation, MM = Missing Value Source: NWS Daily Summary

Daily Weather History Graph

Daily Weather History Graph

Search for Another Location

Airport or City:

Trip Planner

Search our weather history database for the weather conditions in past years. The results will help you decide how hot, cold, wet, or windy it might be!

Date:

Astronomy

Jun. 27, 2013 Rise Set
Actual Time 5:40 AM CDT 9:05 PM CDT
Civil Twilight 5:04 AM CDT 9:41 PM CDT
Nautical Twilight 4:17 AM CDT 10:28 PM CDT
Astronomical Twilight 3:18 AM CDT 11:27 PM CDT
Moon 11:52 PM CDT (6/27) 10:52 AM CDT (6/27)
Length of Visible Light 16h 36m
Length of Day
15h 25m
Waning Gibbous, 76% of the Moon is Illuminated
Jun 27
Waning Gibbous
Jun 29
Last Quarter
Jul 8
New
Jul 15
First Quarter
Jul 22
Full

Hourly Weather History & Observations

Time (CDT) Temp. Heat Index Dew Point Humidity Pressure Visibility Wind Dir Wind Speed Gust Speed Precip Events Conditions
12:14 AM 71.6 °F - 60.8 °F 69% 29.90 in 10.0 mi Calm Calm - N/A   Clear
12:33 AM 71.6 °F - 60.8 °F 69% 29.90 in 10.0 mi Calm Calm - N/A   Clear
12:54 AM 69.8 °F - 62.6 °F 78% 29.90 in 10.0 mi Calm Calm - N/A   Clear
1:14 AM 68.0 °F - 62.6 °F 83% 29.90 in 10.0 mi Calm Calm - N/A   Clear
1:33 AM 68.0 °F - 62.6 °F 83% 29.90 in 10.0 mi SSW 3.5 mph - N/A   Clear
1:54 AM 69.8 °F - 62.6 °F 78% 29.89 in 10.0 mi SSW 5.8 mph - N/A   Clear
2:14 AM 68.0 °F - 62.6 °F 83% 29.89 in 10.0 mi South 6.9 mph - N/A   Clear
2:33 AM 68.0 °F - 60.8 °F 78% 29.88 in 10.0 mi SSW 8.1 mph - N/A   Clear
2:54 AM 68.0 °F - 60.8 °F 78% 29.88 in 10.0 mi SSW 4.6 mph - N/A   Clear
3:14 AM 68.0 °F - 60.8 °F 78% 29.89 in 10.0 mi SSW 5.8 mph - N/A   Clear
3:34 AM 68.0 °F - 62.6 °F 83% 29.89 in 10.0 mi SW 5.8 mph - N/A   Clear
3:54 AM 69.8 °F - 62.6 °F 78% 29.88 in 10.0 mi SW 6.9 mph - N/A   Clear
4:13 AM 69.8 °F - 62.6 °F 78% 29.89 in 10.0 mi SW 6.9 mph - N/A   Clear
4:34 AM 69.8 °F - 60.8 °F 73% 29.89 in 10.0 mi SSW 6.9 mph - N/A   Clear
4:54 AM 71.6 °F - 60.8 °F 69% 29.90 in 10.0 mi SW 5.8 mph - N/A   Clear
5:13 AM 71.6 °F - 59.0 °F 64% 29.91 in 10.0 mi WSW 6.9 mph - N/A   Clear
5:34 AM 71.6 °F - 59.0 °F 64% 29.89 in 10.0 mi WSW 6.9 mph - N/A   Clear
5:54 AM 71.6 °F - 59.0 °F 64% 29.89 in 10.0 mi West 8.1 mph - N/A   Clear
6:13 AM 71.6 °F - 59.0 °F 64% 29.90 in 10.0 mi West 10.4 mph - N/A   Clear
6:34 AM 73.4 °F - 60.8 °F 65% 29.91 in 10.0 mi West 11.5 mph - N/A   Clear
6:54 AM 73.4 °F - 60.8 °F 65% 29.91 in 10.0 mi West 11.5 mph - N/A   Clear
7:14 AM 73.4 °F - 62.6 °F 69% 29.91 in 10.0 mi WNW 9.2 mph - N/A   Clear
7:34 AM 77.0 °F - 62.6 °F 61% 29.92 in 10.0 mi WNW 10.4 mph 16.1 mph N/A   Clear
7:54 AM 77.0 °F - 60.8 °F 57% 29.92 in 10.0 mi WNW 11.5 mph - N/A   Clear
8:14 AM 75.2 °F - 60.8 °F 61% 29.92 in 10.0 mi WNW 9.2 mph - N/A   Clear
8:34 AM 77.0 °F - 62.6 °F 61% 29.92 in 10.0 mi NW 9.2 mph - N/A   Clear
8:54 AM 77.0 °F - 60.8 °F 57% 29.92 in 10.0 mi WNW 9.2 mph - N/A   Clear
9:14 AM 78.8 °F - 59.0 °F 51% 29.93 in 10.0 mi NW 12.7 mph 17.3 mph N/A   Clear
9:34 AM 80.6 °F 80.5 °F 55.4 °F 42% 29.92 in 10.0 mi NW 16.1 mph 19.6 mph N/A   Clear
9:54 AM 80.6 °F 80.3 °F 53.6 °F 39% 29.93 in 10.0 mi WNW 11.5 mph - N/A   Clear
10:14 AM 80.6 °F 80.3 °F 53.6 °F 39% 29.93 in 10.0 mi NNW 11.5 mph - N/A   Clear
10:34 AM 80.6 °F 80.3 °F 53.6 °F 39% 29.94 in 10.0 mi NW 15.0 mph - N/A   Clear
10:54 AM 80.6 °F 80.5 °F 55.4 °F 42% 29.95 in 10.0 mi WNW 10.4 mph - N/A   Clear
11:13 AM 80.6 °F 80.3 °F 53.6 °F 39% 29.95 in 10.0 mi WNW 11.5 mph - N/A   Clear
11:34 AM 80.6 °F 80.5 °F 55.4 °F 42% 29.95 in 10.0 mi WNW 10.4 mph - N/A   Clear
11:54 AM 82.4 °F - 51.8 °F 35% 29.95 in 10.0 mi WNW 15.0 mph 20.7 mph N/A   Clear
12:13 PM 82.4 °F - 51.8 °F 35% 29.96 in 10.0 mi WNW 17.3 mph 24.2 mph N/A   Clear
12:34 PM 84.2 °F - 51.8 °F 33% 29.96 in 10.0 mi WNW 17.3 mph 20.7 mph N/A   Clear
12:53 PM 84.2 °F - 50.0 °F 30% 29.96 in 10.0 mi WNW 17.3 mph 25.3 mph N/A   Clear
1:14 PM 84.2 °F - 51.8 °F 33% 29.96 in 10.0 mi WNW 17.3 mph 23.0 mph N/A   Clear
1:34 PM 84.2 °F - 50.0 °F 30% 29.95 in 10.0 mi WNW 13.8 mph 23.0 mph N/A   Clear
1:53 PM 84.2 °F - 50.0 °F 30% 29.95 in 10.0 mi WNW 12.7 mph 23.0 mph N/A   Clear
2:14 PM 86.0 °F - 50.0 °F 29% 29.95 in 10.0 mi NW 15.0 mph 20.7 mph N/A   Clear
2:34 PM 86.0 °F - 46.4 °F 25% 29.95 in 10.0 mi NW 18.4 mph 26.5 mph N/A   Clear
2:53 PM 86.0 °F - 48.2 °F 27% 29.94 in 10.0 mi WNW 13.8 mph 25.3 mph N/A   Clear
3:14 PM 86.0 °F - 48.2 °F 27% 29.94 in 10.0 mi NW 17.3 mph 24.2 mph N/A   Clear
3:33 PM 86.0 °F - 42.8 °F 22% 29.94 in 10.0 mi WNW 20.7 mph 31.1 mph N/A   Clear
3:54 PM 86.0 °F - 44.6 °F 23% 29.94 in 10.0 mi WNW 17.3 mph 32.2 mph N/A   Clear
4:13 PM 86.0 °F - 42.8 °F 22% 29.93 in 10.0 mi NW 21.9 mph 32.2 mph N/A   Clear
4:34 PM 86.0 °F - 44.6 °F 23% 29.92 in 10.0 mi NW 24.2 mph 28.8 mph N/A   Clear
4:54 PM 86.0 °F - 44.6 °F 23% 29.92 in 10.0 mi NNW 21.9 mph 34.5 mph N/A   Clear
5:13 PM 86.0 °F - 46.4 °F 25% 29.92 in 10.0 mi WNW 17.3 mph 25.3 mph N/A   Clear
5:34 PM 86.0 °F - 46.4 °F 25% 29.92 in 10.0 mi WNW 15.0 mph 33.4 mph N/A   Clear
5:54 PM 86.0 °F - 46.4 °F 25% 29.91 in 10.0 mi NW 17.3 mph 28.8 mph N/A   Clear
6:13 PM 86.0 °F - 44.6 °F 23% 29.91 in 10.0 mi NW 25.3 mph 32.2 mph N/A   Clear
6:34 PM 86.0 °F - 46.4 °F 25% 29.92 in 10.0 mi NW 18.4 mph 25.3 mph N/A   Clear
6:54 PM 86.0 °F - 46.4 °F 25% 29.91 in 10.0 mi NW 18.4 mph 23.0 mph N/A   Clear
7:14 PM 84.2 °F - 48.2 °F 29% 29.91 in 10.0 mi NNW 13.8 mph 25.3 mph N/A   Clear
7:34 PM 82.4 °F - 50.0 °F 32% 29.91 in 10.0 mi NNW 12.7 mph - N/A   Clear
7:54 PM 82.4 °F - 51.8 °F 35% 29.91 in 10.0 mi NNW 10.4 mph - N/A   Clear
8:14 PM 80.6 °F - 51.8 °F 37% 29.90 in 10.0 mi NW 6.9 mph - N/A   Clear
8:34 PM 78.8 °F - 53.6 °F 42% 29.90 in 10.0 mi NW 5.8 mph - N/A   Clear
8:54 PM 78.8 °F - 55.4 °F 44% 29.90 in 10.0 mi NW 3.5 mph - N/A   Clear
9:13 PM 75.2 °F - 55.4 °F 50% 29.89 in 10.0 mi WNW 3.5 mph - N/A   Clear
9:34 PM 73.4 °F - 55.4 °F 53% 29.89 in 10.0 mi West 3.5 mph - N/A   Clear
9:54 PM 73.4 °F - 57.2 °F 57% 29.90 in 10.0 mi West 4.6 mph - N/A   Clear
10:13 PM 71.6 °F - 59.0 °F 64% 29.90 in 10.0 mi WNW 4.6 mph - N/A   Clear
10:34 PM 71.6 °F - 57.2 °F 60% 29.90 in 10.0 mi West 5.8 mph - N/A   Clear
10:54 PM 69.8 °F - 57.2 °F 64% 29.90 in 10.0 mi WNW 5.8 mph - N/A   Clear
11:14 PM 71.6 °F - 55.4 °F 57% 29.91 in 10.0 mi NW 8.1 mph - N/A   Clear
11:34 PM 71.6 °F - 55.4 °F 57% 29.91 in 10.0 mi WNW 8.1 mph - N/A   Clear
11:54 PM 71.6 °F - 55.4 °F 57% 29.92 in 10.0 mi WNW 8.1 mph - N/A   Clear